When you browse on this site, cookies collect data to enhance your experience and personalize the content and advertising you see.
Visit our Privacy Policy to learn more. By continuing to use the site, you agree to this use of cookies and data.
  • In United Kingdom
  • List of Countries
  • For 7 days
  • Water Temperature
  • Weather Map
  • Weather Widgets
  • user-avatar
    Login

    Hourly Weather Sumgayit

    Today, 6 June, Saturday

    Time Temperature Precipitation Wind Pressure Humidity
    00:00 +23°C° 0 mm 9 mps 742 mmHg 54%
    01:00 +22°C° 0 mm 9 mps 742 mmHg 55%
    02:00 +22°C° 0 mm 8 mps 742 mmHg 56%
    03:00 +22°C° 0 mm 7 mps 742 mmHg 57%
    04:00 +22°C° 0 mm 7 mps 742 mmHg 55%
    05:00 +23°C° 0 mm 7 mps 743 mmHg 53%
    06:00 +23°C° 0 mm 7 mps 743 mmHg 51%
    07:00 +24°C° 0 mm 7 mps 743 mmHg 47%
    08:00 +27°C° 0 mm 7 mps 743 mmHg 42%
    09:00 +28°C° 0 mm 8 mps 743 mmHg 38%
    10:00 +28°C° 0 mm 8 mps 743 mmHg 37%
    11:00 +28°C° 0 mm 8 mps 743 mmHg 36%
    12:00 +29°C° 0 mm 8 mps 743 mmHg 36%
    13:00 +28°C° 0.2 mm 8 mps 743 mmHg 36%
    14:00 +28°C° 0.2 mm 9 mps 743 mmHg 37%
    15:00 +28°C° 0.2 mm 9 mps 743 mmHg 38%
    16:00 +27°C° 0.4 mm 9 mps 742 mmHg 40%
    17:00 +26°C° 0.4 mm 9 mps 742 mmHg 42%
    18:00 +26°C° 0.4 mm 10 mps 742 mmHg 44%
    19:00 +24°C° 0.2 mm 9 mps 742 mmHg 45%
    20:00 +24°C° 0.2 mm 8 mps 742 mmHg 46%
    21:00 +23°C° 0.2 mm 7 mps 743 mmHg 47%
    22:00 +23°C° 0 mm 6 mps 743 mmHg 49%
    23:00 +22°C° 0 mm 4 mps 742 mmHg 51%

    Tomorrow, 7 June, Sunday

    Time Temperature Precipitation Wind Pressure Humidity
    00:00 +22°C° 0 mm 3 mps 742 mmHg 52%
    01:00 +23°C° 0 mm 2 mps 742 mmHg 55%
    02:00 +21°C° 0 mm 2 mps 742 mmHg 59%
    03:00 +20°C° 0 mm 2 mps 742 mmHg 62%
    04:00 +21°C° 0 mm 2 mps 742 mmHg 60%
    05:00 +21°C° 0 mm 2 mps 742 mmHg 59%
    06:00 +21°C° 0 mm 2 mps 742 mmHg 57%
    07:00 +23°C° 0 mm 2 mps 742 mmHg 53%
    08:00 +25°C° 0 mm 2 mps 742 mmHg 49%
    09:00 +26°C° 0 mm 2 mps 742 mmHg 45%
    10:00 +27°C° 0 mm 2 mps 742 mmHg 41%
    11:00 +28°C° 0 mm 3 mps 742 mmHg 38%
    12:00 +29°C° 0 mm 3 mps 742 mmHg 35%
    13:00 +29°C° 0 mm 3 mps 742 mmHg 35%
    14:00 +29°C° 0 mm 4 mps 741 mmHg 34%
    15:00 +29°C° 0 mm 4 mps 741 mmHg 33%
    16:00 +28°C° 0 mm 3 mps 741 mmHg 32%
    17:00 +28°C° 0 mm 3 mps 741 mmHg 31%
    18:00 +27°C° 0 mm 3 mps 740 mmHg 30%
    19:00 +26°C° 0 mm 2 mps 740 mmHg 33%
    20:00 +26°C° 0 mm 2 mps 741 mmHg 35%
    21:00 +25°C° 0 mm 1 mps 741 mmHg 37%
    22:00 +24°C° 0 mm 2 mps 740 mmHg 40%
    23:00 +24°C° 0 mm 2 mps 740 mmHg 43%

    Day after tomorrow, 8 June, Monday

    Time Temperature Precipitation Wind Pressure Humidity
    00:00 +24°C° 0 mm 2 mps 740 mmHg 46%
    01:00 +23°C° 0 mm 1 mps 740 mmHg 48%
    02:00 +23°C° 0 mm 1 mps 739 mmHg 51%
    03:00 +22°C° 0 mm 1 mps 739 mmHg 53%
    04:00 +23°C° 0 mm 1 mps 739 mmHg 50%
    05:00 +24°C° 0 mm 1 mps 739 mmHg 48%
    06:00 +25°C° 0 mm 1 mps 739 mmHg 45%
    07:00 +26°C° 0 mm 2 mps 739 mmHg 42%
    08:00 +28°C° 0 mm 3 mps 739 mmHg 38%
    09:00 +29°C° 0 mm 4 mps 739 mmHg 34%
    10:00 +30°C° 0 mm 5 mps 739 mmHg 32%
    11:00 +32°C° 0 mm 5 mps 739 mmHg 30%
    12:00 +32°C° 0 mm 6 mps 739 mmHg 28%
    13:00 +32°C° 0 mm 6 mps 739 mmHg 27%
    14:00 +32°C° 0 mm 6 mps 738 mmHg 26%
    15:00 +32°C° 0 mm 6 mps 738 mmHg 26%
    16:00 +32°C° 0 mm 6 mps 738 mmHg 25%
    17:00 +30°C° 0 mm 5 mps 738 mmHg 24%
    18:00 +29°C° 0 mm 5 mps 738 mmHg 24%
    19:00 +28°C° 0 mm 4 mps 738 mmHg 28%
    20:00 +27°C° 0 mm 3 mps 738 mmHg 32%
    21:00 +26°C° 0 mm 3 mps 738 mmHg 36%
    22:00 +25°C° 0 mm 2 mps 738 mmHg 38%
    23:00 +25°C° 0 mm 2 mps 738 mmHg 40%

    9 June, Tuesday

    Time Temperature Precipitation Wind Pressure Humidity
    00:00 +24°C° 0 mm 2 mps 738 mmHg 42%
    01:00 +24°C° 0 mm 2 mps 737 mmHg 42%
    02:00 +24°C° 0 mm 2 mps 737 mmHg 42%
    03:00 +23°C° 0 mm 2 mps 737 mmHg 42%
    04:00 +24°C° 0 mm 2 mps 738 mmHg 41%
    05:00 +25°C° 0 mm 2 mps 738 mmHg 39%
    06:00 +26°C° 0 mm 2 mps 738 mmHg 38%
    07:00 +27°C° 0 mm 3 mps 738 mmHg 36%
    08:00 +28°C° 0 mm 4 mps 739 mmHg 33%
    09:00 +29°C° 0 mm 4 mps 739 mmHg 31%
    10:00 +30°C° 0 mm 5 mps 739 mmHg 28%
    11:00 +32°C° 0 mm 5 mps 739 mmHg 24%
    12:00 +34°C° 0 mm 5 mps 739 mmHg 21%
    13:00 +33°C° 0 mm 5 mps 739 mmHg 22%
    14:00 +33°C° 0 mm 5 mps 738 mmHg 22%
    15:00 +33°C° 0 mm 5 mps 738 mmHg 22%
    16:00 +33°C° 0 mm 4 mps 738 mmHg 22%
    17:00 +33°C° 0 mm 3 mps 737 mmHg 22%
    18:00 +31°C° 0 mm 2 mps 737 mmHg 23%
    19:00 +30°C° 0 mm 2 mps 737 mmHg 24%
    20:00 +29°C° 0 mm 1 mps 737 mmHg 26%
    21:00 +29°C° 0 mm 1 mps 738 mmHg 28%
    22:00 +28°C° 0 mm 1 mps 738 mmHg 29%
    23:00 +27°C° 0 mm 1 mps 738 mmHg 31%

    10 June, Wednesday

    Time Temperature Precipitation Wind Pressure Humidity
    00:00 +24°C° 0 mm 0 mps 738 mmHg 32%
    01:00 +23°C° 0 mm 0 mps 737 mmHg 33%
    02:00 +23°C° 0 mm 0 mps 737 mmHg 35%
    03:00 +22°C° 0 mm 0 mps 737 mmHg 36%
    04:00 +25°C° 0 mm 1 mps 738 mmHg 33%
    05:00 +27°C° 0 mm 1 mps 738 mmHg 31%
    06:00 +28°C° 0 mm 1 mps 738 mmHg 28%
    07:00 +29°C° 0 mm 1 mps 739 mmHg 26%
    08:00 +30°C° 0 mm 1 mps 739 mmHg 25%
    09:00 +31°C° 0 mm 1 mps 739 mmHg 23%
    10:00 +32°C° 0 mm 1 mps 739 mmHg 21%
    11:00 +34°C° 0 mm 2 mps 739 mmHg 18%
    12:00 +36°C° 0 mm 3 mps 739 mmHg 16%
    13:00 +36°C° 0 mm 3 mps 739 mmHg 15%
    14:00 +36°C° 0 mm 4 mps 739 mmHg 15%
    15:00 +36°C° 0 mm 4 mps 738 mmHg 15%
    16:00 +35°C° 0 mm 4 mps 738 mmHg 15%
    17:00 +35°C° 0 mm 3 mps 738 mmHg 16%
    18:00 +34°C° 0 mm 3 mps 738 mmHg 16%
    19:00 +33°C° 0 mm 3 mps 738 mmHg 19%
    20:00 +30°C° 0 mm 2 mps 738 mmHg 21%
    21:00 +29°C° 0 mm 2 mps 739 mmHg 24%
    22:00 +28°C° 0 mm 2 mps 738 mmHg 24%
    23:00 +28°C° 0 mm 2 mps 738 mmHg 24%

    11 June, Thursday

    Time Temperature Precipitation Wind Pressure Humidity
    00:00 +27°C° 0 mm 2 mps 738 mmHg 24%
    01:00 +27°C° 0 mm 3 mps 738 mmHg 23%
    02:00 +27°C° 0 mm 3 mps 738 mmHg 23%
    03:00 +26°C° 0 mm 3 mps 737 mmHg 23%
    04:00 +26°C° 0 mm 3 mps 737 mmHg 26%
    05:00 +26°C° 0 mm 3 mps 738 mmHg 28%
    06:00 +26°C° 0 mm 3 mps 738 mmHg 30%
    07:00 +28°C° 0 mm 3 mps 738 mmHg 28%
    08:00 +30°C° 0 mm 4 mps 738 mmHg 25%
    09:00 +32°C° 0 mm 4 mps 738 mmHg 22%
    10:00 +33°C° 0 mm 5 mps 738 mmHg 20%
    11:00 +34°C° 0 mm 5 mps 738 mmHg 18%
    12:00 +35°C° 0 mm 6 mps 738 mmHg 16%
    13:00 +35°C° 0 mm 6 mps 738 mmHg 16%
    14:00 +35°C° 0 mm 6 mps 737 mmHg 16%
    15:00 +35°C° 0 mm 6 mps 737 mmHg 16%
    16:00 +35°C° 0 mm 5 mps 736 mmHg 16%
    17:00 +34°C° 0 mm 4 mps 736 mmHg 17%
    18:00 +33°C° 0 mm 4 mps 736 mmHg 17%
    19:00 +31°C° 0 mm 3 mps 736 mmHg 19%
    20:00 +30°C° 0 mm 2 mps 736 mmHg 21%
    21:00 +28°C° 0 mm 1 mps 737 mmHg 23%
    22:00 +28°C° 0 mm 1 mps 736 mmHg 24%
    23:00 +27°C° 0 mm 1 mps 736 mmHg 25%
    Show more